カタログに戻る

ONEWEB-0093

運用中通信PO
NORAD 45444·PAYLOAD·🇬🇧 United Kingdom

打ち上げ Mar 21, 2020 から Baikonur Cosmodrome

Loading…

次のパス (今後24時間)

TLE

最新Source: CelesTrak SupGP

元期: Sep 15, 2026, 01:18 UTC

1 45444C 20020W   26258.05434444  .00001027  00000+0  29001-2 0  2587
2 45444  87.8984   3.2046 0002095 100.3546 306.1770 13.11418617    15

AllMySatでONEWEB-0093をリアルタイム追跡

Download on the App Store